Date String (YYYY-MM-DD hh:mm:ss) UTC,Instrument flags,Ambient pressure (hPa),Sample flow (lpm),Bypass flow (lpm),Sample temperature (°C),Ambient temperature (°C),ASC tube jacket temperature (°C),LED temperature (°C),Box temperature (°C),Sample RH (%),Span deviation,Mass concentration (μg/m³),Mass concentration (μg/m³),Mass concentration (μg/m³)
DateTimeUTC,F1_M11,P_M11,Q1_M11,Q2_M11,T1_M11,T2_M11,T3_M11,T4_M11,T5_M11,U1_M11,ZSPAN_M11,X0_M11,X2_M11,X1_M11
2022-02-12 20:00:00,,0830.2,4.98,0.00,24.1,23.4,00.0,33.0,26.0,07.7,0000.0,0004.28,0001.42,0001.15
2022-02-12 20:01:00,,0830.2,5.01,0.00,24.1,23.5,00.0,33.0,26.0,07.2,0000.0,0004.69,0001.44,0001.17
2022-02-12 20:02:00,,0830.2,4.99,0.00,24.1,23.5,00.0,33.0,26.1,06.3,0000.0,0004.37,0001.44,0001.18
2022-02-12 20:03:00,,0830.1,5.02,0.00,24.2,23.5,00.0,33.0,26.1,06.2,0000.0,0004.09,0001.41,0001.17
2022-02-12 20:04:00,,0830.1,4.99,0.00,24.2,23.5,00.0,33.0,26.1,06.9,0000.0,0004.11,0001.42,0001.17
2022-02-12 20:05:00,,0830.1,5.01,0.00,24.2,23.5,00.0,33.0,26.0,06.9,0000.0,0003.97,0001.42,0001.17
2022-02-12 20:06:00,,0830.0,5.00,0.00,24.2,23.5,00.0,33.0,26.1,06.9,0000.0,0003.89,0001.42,0001.18
2022-02-12 20:07:00,,0830.0,5.00,0.00,24.2,23.5,00.0,33.0,26.1,06.9,0000.0,0005.15,0001.42,0001.18
2022-02-12 20:08:00,,0830.1,5.00,0.00,24.2,23.5,00.0,33.1,26.1,07.1,0000.0,0004.86,0001.41,0001.19
2022-02-12 20:09:00,,0830.0,5.00,0.00,24.3,23.6,00.0,33.1,26.1,07.3,0000.0,0004.25,0001.39,0001.20
2022-02-12 20:10:00,,0830.1,5.00,0.00,24.3,23.6,00.0,33.1,26.2,07.7,0000.0,0004.01,0001.39,0001.19
2022-02-12 20:11:00,,0830.1,5.00,0.00,24.3,23.6,00.0,33.1,26.2,07.9,0000.0,0004.10,0001.42,0001.23
2022-02-12 20:12:00,,0830.0,5.01,0.00,24.3,23.6,00.0,33.1,26.2,08.1,0000.0,0003.60,0001.45,0001.27
2022-02-12 20:13:00,,0830.1,4.99,0.00,24.3,23.6,00.0,33.1,26.2,08.0,0000.0,0003.94,0001.50,0001.32
2022-02-12 20:14:00,,0830.0,5.01,0.00,24.3,23.6,00.0,33.2,26.2,08.0,0000.0,0005.05,0001.58,0001.40
2022-02-12 20:15:00,,0830.0,4.99,0.00,24.3,23.6,00.0,33.2,26.2,07.9,0000.0,0005.41,0001.63,0001.46
2022-02-12 20:16:00,,0830.0,5.01,0.00,24.3,23.6,00.0,33.2,26.2,08.0,0000.0,0005.50,0001.70,0001.53
2022-02-12 20:17:00,,0830.1,4.99,0.00,24.4,23.7,00.0,33.2,26.2,08.1,0000.0,0005.72,0001.78,0001.58
2022-02-12 20:18:00,,0830.1,5.02,0.00,24.4,23.7,00.0,33.2,26.3,08.3,0000.0,0004.64,0001.85,0001.63
2022-02-12 20:19:00,,0830.1,4.99,0.00,24.4,23.7,00.0,33.2,26.3,08.1,0000.0,0004.60,0001.90,0001.65
2022-02-12 20:20:00,,0830.1,5.00,0.00,24.4,23.7,00.0,33.2,26.3,07.9,0000.0,0004.65,0001.93,0001.67
2022-02-12 20:21:00,,0830.0,5.02,0.00,24.4,23.7,00.0,33.2,26.3,08.3,0000.0,0004.81,0001.94,0001.69
2022-02-12 20:22:00,,0829.9,4.99,0.00,24.4,23.7,00.0,33.3,26.3,08.0,0000.0,0005.22,0001.95,0001.69
2022-02-12 20:23:00,,0829.9,5.02,0.00,24.4,23.7,00.0,33.3,26.4,08.3,0000.0,0005.09,0001.98,0001.69
2022-02-12 20:24:00,,0830.0,4.99,0.00,24.5,23.7,00.0,33.3,26.3,08.7,0000.0,0004.73,0002.01,0001.72
2022-02-12 20:25:00,,0830.0,5.01,0.00,24.5,23.8,00.0,33.3,26.4,09.3,0000.0,0003.76,0002.04,0001.75
2022-02-12 20:26:00,,0830.0,5.01,0.00,24.5,23.8,00.0,33.3,26.4,09.5,0000.0,0003.41,0002.09,0001.79
2022-02-12 20:27:00,,0830.0,4.99,0.00,24.5,23.8,00.0,33.3,26.4,09.9,0000.0,0004.01,0002.12,0001.84
2022-02-12 20:28:00,,0829.9,5.02,0.00,24.5,23.8,00.0,33.3,26.4,09.7,0000.0,0003.99,0002.16,0001.90
2022-02-12 20:29:00,,0829.9,4.98,0.00,24.5,23.8,00.0,33.4,26.4,09.7,0000.0,0004.12,0002.21,0001.96
2022-02-12 20:30:00,,0830.0,5.02,0.00,24.5,23.8,00.0,33.4,26.4,09.4,0000.0,0004.19,0002.27,0002.03
2022-02-12 20:31:00,,0829.9,4.99,0.00,24.5,23.8,00.0,33.4,26.4,09.6,0000.0,0004.31,0002.34,0002.09
2022-02-12 20:32:00,,0829.9,5.01,0.00,24.6,23.8,00.0,33.4,26.4,09.5,0000.0,0004.30,0002.43,0002.17
2022-02-12 20:33:00,,0829.8,4.99,0.00,24.6,23.8,00.0,33.4,26.4,09.7,0000.0,0004.13,0002.49,0002.23
2022-02-12 20:34:00,,0829.9,5.00,0.00,24.6,23.9,00.0,33.4,26.4,09.4,0000.0,0004.50,0002.53,0002.29
2022-02-12 20:35:00,,0829.8,5.00,0.00,24.6,23.9,00.0,33.4,26.5,09.5,0000.0,0004.55,0002.58,0002.33
2022-02-12 20:36:00,,0829.8,4.99,0.00,24.6,23.9,00.0,33.4,26.5,09.1,0000.0,0004.55,0002.58,0002.33
2022-02-12 20:37:00,,0829.8,5.02,0.00,24.6,23.9,00.0,33.5,26.5,08.8,0000.0,0004.44,0002.57,0002.32
2022-02-12 20:38:00,,0829.8,4.99,0.00,24.6,23.9,00.0,33.5,26.5,08.8,0000.0,0003.88,0002.54,0002.30
2022-02-12 20:39:00,,0829.8,4.99,0.00,24.6,23.9,00.0,33.5,26.5,08.8,0000.0,0003.73,0002.49,0002.26
2022-02-12 20:40:00,,0829.8,5.02,0.00,24.7,23.9,00.0,33.5,26.5,08.7,0000.0,0003.61,0002.46,0002.22
2022-02-12 20:41:00,,0829.9,4.99,0.00,24.7,23.9,00.0,33.5,26.6,09.3,0000.0,0003.60,0002.44,0002.19
2022-02-12 20:42:00,,0829.8,4.99,0.00,24.7,23.9,00.0,33.5,26.6,09.4,0000.0,0003.72,0002.45,0002.17
2022-02-12 20:43:00,,0829.8,5.01,0.00,24.7,24.0,00.0,33.5,26.6,09.5,0000.0,0003.66,0002.42,0002.15
2022-02-12 20:44:00,,0829.8,5.01,0.00,24.7,24.0,00.0,33.5,26.6,09.7,0000.0,0004.24,0002.43,0002.15
2022-02-12 20:45:00,,0829.8,5.01,0.00,24.7,24.0,00.0,33.6,26.6,09.7,0000.0,0004.21,0002.45,0002.16
2022-02-12 20:46:00,,0829.8,4.98,0.00,24.7,24.0,00.0,33.6,26.6,09.8,0000.0,0004.30,0002.45,0002.17
2022-02-12 20:47:00,,0829.8,5.00,0.00,24.7,24.0,00.0,33.6,26.6,09.1,0000.0,0004.29,0002.47,0002.18
2022-02-12 20:48:00,,0829.8,5.01,0.00,24.7,24.0,00.0,33.6,26.6,07.6,0000.0,0004.29,0002.44,0002.13
2022-02-12 20:49:00,,0829.8,5.00,0.00,24.7,24.0,00.0,33.6,26.6,06.8,0000.0,0004.29,0002.38,0002.04
2022-02-12 20:50:00,,0829.8,5.01,0.00,24.8,24.0,00.0,33.6,26.6,06.9,0000.0,0005.12,0002.30,0001.96
2022-02-12 20:51:00,,0829.8,4.99,0.00,24.8,24.0,00.0,33.6,26.7,07.3,0000.0,0005.12,0002.21,0001.88
2022-02-12 20:52:00,,0829.8,5.00,0.00,24.8,24.1,00.0,33.6,26.7,08.0,0000.0,0005.16,0002.18,0001.83
2022-02-12 20:53:00,,0829.8,4.99,0.00,24.8,24.1,00.0,33.6,26.7,08.3,0000.0,0004.89,0002.11,0001.79
2022-02-12 20:54:00,,0829.7,5.02,0.00,24.8,24.0,00.0,33.7,26.7,08.0,0000.0,0005.04,0002.08,0001.75
2022-02-12 20:55:00,,0829.8,4.99,0.00,24.8,24.1,00.0,33.7,26.7,08.3,0000.0,0004.17,0002.02,0001.70
2022-02-12 20:56:00,,0829.8,5.01,0.00,24.8,24.1,00.0,33.7,26.7,08.5,0000.0,0003.87,0001.96,0001.64
2022-02-12 20:57:00,,0829.8,5.01,0.00,24.8,24.1,00.0,33.7,26.7,08.5,0000.0,0003.72,0001.89,0001.57
2022-02-12 20:58:00,,0829.8,5.00,0.00,24.8,24.1,00.0,33.7,26.7,08.5,0000.0,0003.75,0001.85,0001.54
2022-02-12 20:59:00,,0829.8,5.00,0.00,24.8,24.1,00.0,33.7,26.7,08.3,0000.0,0003.73,0001.85,0001.55
